User: anonymous   Login
Location: Anjeux
(47.8815°N, 6.2076°E)
Time: 01:17:35
(UTC+00:00)
Language:

YAOGAN 6 - Orbit

View from above orbital plane
View from above orbital plane
View from above satellite
View from above satellite

Ground track
Ground track

The orbit data is extracted from the following two-line orbital elements,

1 34839U 09021A   21125.70884947  .00000722  00000-0  29193-4 0  9996
2 34839  97.0481 122.0065 0026151 315.2187  44.6942 15.27452316668988
Epoch (UTC): 05 May 2021 17:00:44
Eccentricity: 0.0026151
inclination: 97.0481°
perigee height: 465 km
apogee height: 501 km
right ascension of ascending node: 122.0065°
argument of perigee: 315.2187°
revolutions per day: 15.27452316
mean anomaly at epoch: 44.6942°
orbit number at epoch: 66898

The dashed part of the orbit path shows where the satellite is in the earth's shadow,  

DLR